Albany, GA

4:54 AM EDT on March 26, 2017 (GMT -0400)
Southwest Georgia Regional

Weather History for KABY - November, 2012

Change the Weather History Date:

Tuesday, November 13, 2012

  Actual Average Record
Temperature  
Mean Temperature 60 °F 59 °F  
Max Temperature 70 °F 72 °F 86 °F (1986)
Min Temperature 50 °F 46 °F 23 °F (1968)
Degree Days  
Heating Degree Days 5 6  
Month to date heating degree days 86 68  
Since 1 July heating degree days 137 118  
Cooling Degree Days 0 1  
Month to date cooling degree days 9 19  
Year to date cooling degree days 2803 2522  
Growing Degree Days 10 (Base 50)    
Moisture  
Dew Point 43 °F    
Average Humidity 59    
Maximum Humidity 93    
Minimum Humidity 24    
Precipitation  
Precipitation T in 0.08 in 0.04 in (2008)
Month to date precipitation 0.02 1.11  
Year to date precipitation 26.91 42.74  
Sea Level Pressure  
Sea Level Pressure 30.25 in    
Wind  
Wind Speed 6 mph (NNW)    
Max Wind Speed 14 mph    
Max Gust Speed 24 mph    
Visibility 10 miles    
Events      
T = Trace of Precipitation, MM = Missing Value Source: NWS Daily Summary

Daily Weather History Graph

Daily Weather History Graph

Search for Another Location

Airport or City:

Trip Planner

Search our weather history database for the weather conditions in past years. The results will help you decide how hot, cold, wet, or windy it might be!

Date:

Astronomy

Nov. 13, 2012 Rise Set
Actual Time 7:03 AM EST 5:38 PM EST
Civil Twilight 6:37 AM EST 6:04 PM EST
Nautical Twilight 6:08 AM EST 6:33 PM EST
Astronomical Twilight 5:39 AM EST 7:02 PM EST
Moon 6:39 AM EST (11/13) 5:32 PM EST (11/13)
Length of Visible Light 11h 26m
Length of Day
10h 35m
Waning Crescent, 0% of the Moon is Illuminated
Nov 13
Waning Crescent
Nov 13
New
Nov 20
First Quarter
Nov 28
Full
Dec 6
Last Quarter

Hourly Weather History & Observations

Time (EST) Temp. Dew Point Humidity Pressure Visibility Wind Dir Wind Speed Gust Speed Precip Events Conditions
12:07 AM 64.4 °F 60.8 °F 88% 30.23 in 10.0 mi WNW 8.1 mph - N/A   Overcast
12:53 AM 63.0 °F 59.0 °F 87% 30.23 in 10.0 mi NW 8.1 mph - N/A   Overcast
1:53 AM 60.1 °F 57.0 °F 90% 30.22 in 10.0 mi NNW 11.5 mph - N/A   Overcast
2:53 AM 57.9 °F 55.0 °F 90% 30.23 in 10.0 mi NNW 10.4 mph - N/A   Overcast
3:53 AM 57.0 °F 54.0 °F 89% 30.23 in 10.0 mi North 8.1 mph - N/A   Overcast
4:33 AM 55.4 °F 51.8 °F 88% 30.23 in 10.0 mi NNW 12.7 mph - N/A   Overcast
4:53 AM 55.0 °F 50.0 °F 83% 30.24 in 10.0 mi NNW 10.4 mph - N/A   Overcast
5:07 AM 55.4 °F 50.0 °F 82% 30.24 in 10.0 mi North 8.1 mph - N/A   Overcast
5:53 AM 55.0 °F 48.0 °F 77% 30.25 in 10.0 mi North 6.9 mph - N/A   Overcast
6:53 AM 54.0 °F 46.0 °F 75% 30.27 in 10.0 mi North 6.9 mph - N/A   Overcast
7:53 AM 54.0 °F 44.1 °F 69% 30.29 in 10.0 mi NNW 8.1 mph - N/A   Overcast
8:35 AM 53.6 °F 41.0 °F 62% 30.30 in 10.0 mi NNW 10.4 mph - N/A   Overcast
8:53 AM 54.0 °F 39.9 °F 59% 30.31 in 10.0 mi North 5.8 mph - N/A   Overcast
9:53 AM 55.0 °F 42.1 °F 62% 30.31 in 10.0 mi NW 9.2 mph - 0.00 in   Overcast
11:53 AM 61.0 °F 39.9 °F 46% 30.28 in 10.0 mi NNW 6.9 mph - N/A   Scattered Clouds
12:53 PM 64.9 °F 39.9 °F 40% 30.24 in 10.0 mi North 4.6 mph - N/A   Clear
1:53 PM 66.9 °F 36.0 °F 32% 30.22 in 10.0 mi Variable 4.6 mph - N/A   Clear
2:53 PM 69.1 °F 35.1 °F 29% 30.20 in 10.0 mi Variable 3.5 mph - N/A   Clear
3:53 PM 70.0 °F 35.1 °F 28% 30.20 in 10.0 mi NNE 6.9 mph - N/A   Clear
4:53 PM 68.0 °F 30.0 °F 24% 30.20 in 10.0 mi NNE 3.5 mph - N/A   Clear
5:53 PM 60.1 °F 34.0 °F 38% 30.22 in 10.0 mi NNW 3.5 mph - N/A   Clear
6:53 PM 55.0 °F 33.1 °F 43% 30.24 in 10.0 mi North 5.8 mph - N/A   Clear
7:53 PM 55.9 °F 32.0 °F 40% 30.25 in 10.0 mi North 5.8 mph - N/A   Clear
8:53 PM 55.0 °F 33.1 °F 43% 30.25 in 10.0 mi North 5.8 mph - N/A   Clear
9:53 PM 53.1 °F 34.0 °F 48% 30.27 in 10.0 mi North 3.5 mph - N/A   Clear
10:53 PM 51.1 °F 36.0 °F 56% 30.27 in 10.0 mi North 3.5 mph - N/A   Clear
11:53 PM 50.0 °F 39.0 °F 66% 30.25 in 10.0 mi North 3.5 mph - N/A   Clear